Portada
METAR-TAF:

METAR-TAF

Aeropuertos :

Centralia Municipal Airport

Centralia, Illinois, Estados Unidos

latitud: 38-30-53N, longitud: 089-05-32W, altitud: 163 m

Observación

El informe se hizo hace 31 minutos, a las 01:15 UTC
Viento calma
Temperatura 24°C
Humedad 78%
Presión 1016 hPa
Visibilidad: 16.1 km
Cielo despejado

METAR: KENL 230115Z AUTO 00000KT 10SM CLR 24/20 A3000 RMK AO2 T02410204

Hora: 20:46 (01:46 UTC)


TAF: falta

Observaciones y pronósticos meteorológicos de más de 4000 aeropuertos (mensajes METAR y TAF).

Los puntos amarillos y rojos representan las estaciones disponibles.

Ponga el ratón en el punto deseado para ver el nombre de la estación.

Haga clic para ver las observaciones y los pronósticos meteorológicos.

Para cambiar el mapa : haga clic en los botones verdes con una cruz de color negro para hacer un zoom, en el botón verde con un guión para alejar o en las flechas verdes para mapas adyacentes.


METAR-TAF: